This is the latest recevied weather packets stored in our database for station/object M0JUI-1. If no packets are shown the sender has not sent any weather packets the latest 10 day(s).
| Time | Temp. | Humidity | Pressure | Rain* | Wind** | Luminosity | Snow |
|---|---|---|---|---|---|---|---|
| 1788356661 | 16.11° C | 14% | 1014.7 hPa | 0 mm | - | 86 W/m² | - |
| 1788356361 | 16.11° C | 14% | 1014.7 hPa | 0 mm | - | 91 W/m² | - |
| 1788356061 | 16.11° C | 14% | 1014.9 hPa | 0 mm | - | 74 W/m² | - |
| 1788355749 | 16.11° C | 14% | 1014.9 hPa | 0 mm | - | 83 W/m² | - |
| 1788355450 | 16.11° C | 13% | 1015 hPa | 0.25 mm | - | 77 W/m² | - |
| 1788355149 | 16.11° C | 13% | 1014.9 hPa | 0.51 mm | - | 106 W/m² | - |
| 1788354837 | 16.11° C | 13% | 1015.1 hPa | 0.76 mm | - | 141 W/m² | - |
| 1788354537 | 16.11° C | 12% | 1015.3 hPa | 0.76 mm | - | 133 W/m² | - |
| 1788354237 | 16.11° C | 13% | 1015.3 hPa | 1.02 mm | - | 208 W/m² | - |
| 1788353937 | 15.56° C | 12% | 1015.4 hPa | 1.02 mm | - | 244 W/m² | - |
| 1788353638 | 15.56° C | 12% | 1015.6 hPa | 1.27 mm | - | 196 W/m² | - |
| 1788353337 | 15.56° C | 11% | 1015.4 hPa | 1.27 mm | - | 155 W/m² | - |
| 1788353037 | 15.56° C | 11% | 1015.6 hPa | 1.27 mm | - | 170 W/m² | - |
| 1788352737 | 15.56° C | 10% | 1015.6 hPa | 1.27 mm | - | 192 W/m² | - |
| 1788352437 | 15.56° C | 9% | 1015.7 hPa | 1.27 mm | - | 144 W/m² | - |
| 1788352137 | 15.56° C | 9% | 1015.7 hPa | 1.27 mm | - | 129 W/m² | - |
| 1788351838 | 15.56° C | 8% | 1015.8 hPa | 1.02 mm | - | 114 W/m² | - |
| 1788351525 | 15.56° C | 7% | 1015.7 hPa | 0.76 mm | - | 140 W/m² | - |
| 1788351225 | 15.56° C | 7% | 1015.8 hPa | 0.51 mm | - | 197 W/m² | - |
| 1788350925 | 15.56° C | 7% | 1016 hPa | 0.51 mm | - | 158 W/m² | - |
| 1788350625 | 15.56° C | 6% | 1016.1 hPa | 0.25 mm | - | 136 W/m² | - |
| 1788350325 | 15.56° C | 6% | 1016.1 hPa | 0.51 mm | - | 138 W/m² | - |
| 1788350025 | 15.56° C | 6% | 1016.1 hPa | 0.25 mm | - | 110 W/m² | - |
| 1788349725 | 15.56° C | 6% | 1016.2 hPa | 0.25 mm | - | 127 W/m² | - |
| 1788349425 | 15.56° C | 6% | 1016.4 hPa | 0.25 mm | - | 91 W/m² | - |
* Rain latest hour (hover to see other rain measurements)
** Current wind speed in m/s (hover to see current wind gust speed)